[[{"header":{"parameterUnit":"m.s-1","parameterCategory":1,"la1":30.2991,"la2":30.254,"lo1":-89.0895,"lo2":-89.0444,"dy":0.0017,"dx":0.0017,"nx":28,"ny":28,"refTime":"2024-04-21T21:00:00:Z","depth":0,"parameterNumber":2,"parameterNumberName":"U-component_of_WINDS"},"data":[0,0,0,0,0,0,0,0,0,0,0,0,0,0,0,0,0,0,0,0,0,0,0,0,0,0,0,0,0,0,0,0,0,0,0,0,0,0,0,0,0,0,0,0,0,0,0,0,0,0,0,0,0,0,0,0,0,0,-0.7142,-0.7142,0,-0.7145,-0.7145,-0.7145,-0.7133,-0.7132,-0.7132,-0.7132,-0.7135,-0.7135,-0.7136,0,0,0,0,0,0,0,0,0,0,0,0,0,-0.7125,-0.7125,-0.7142,-0.7142,-0.7142,-0.7145,-0.7145,-0.7145,-0.7133,-0.7132,-0.7132,-0.7132,-0.7135,-0.7135,-0.7136,0,0,0,0,0,0,0,0,0,0,0,0,0,-0.713,-0.7125,-0.7142,-0.7136,-0.7136,-0.7145,-0.7145,-0.7145,-0.7133,-0.7132,-0.7132,-0.7131,-0.7135,-0.7135,-0.7136,-0.7151,0,0,-0.7138,-0.7138,0,0,0,0,0,0,0,0,-0.713,-0.7131,-0.7137,-0.7137,-0.7136,-0.7138,-0.714,-0.7147,-0.7133,-0.7134,-0.7132,-0.7131,-0.7136,-0.7137,-0.7139,-0.7151,-0.7151,-0.7138,-0.7138,-0.7139,-0.7139,0,0,0,0,0,0,0,-0.713,-0.7131,-0.7143,-0.7137,-0.7137,-0.7133,-0.7134,-0.7142,-0.7138,-0.7134,-0.7133,-0.7134,-0.7136,-0.7138,-0.7139,-0.7151,-0.7138,-0.7139,-0.7139,-0.7139,-0.7175,-0.7176,0,0,0,0,0,0,-0.713,-0.7131,-0.7143,-0.7143,-0.7132,-0.7134,-0.7134,-0.7138,-0.7138,-0.7138,-0.7134,-0.7133,-0.7137,-0.7138,-0.7139,-0.7156,-0.7139,-0.7139,-0.714,-0.7175,-0.7176,-0.7176,0,0,0,0,0,0,-0.713,-0.7131,-0.7143,-0.7137,-0.7138,-0.7135,-0.7139,-0.7138,-0.714,-0.7138,-0.7138,-0.7137,-0.7137,-0.7138,-0.7148,-0.7156,-0.714,-0.714,-0.7174,-0.7175,-0.7176,-0.7191,0,0,0,0,0,0,-0.7129,-0.7131,-0.7137,-0.7137,-0.7138,-0.7153,-0.714,-0.7139,-0.7142,-0.714,-0.7141,-0.714,-0.7137,-0.7147,-0.7149,-0.7157,-0.7141,-0.7173,-0.7175,-0.7176,-0.719,-0.7192,-0.7195,0,0,0,0,0,-0.7129,-0.7142,-0.7138,-0.7139,-0.7146,-0.7153,-0.7154,-0.7149,-0.7142,-0.7148,-0.7147,-0.714,-0.7155,-0.7148,-0.715,-0.7158,-0.7173,-0.7174,-0.7176,-0.7189,-0.7192,-0.7195,0,0,0,0,0,0,-0.7143,-0.7142,-0.7137,-0.715,-0.7152,-0.7151,-0.7158,-0.7153,-0.7156,-0.7155,-0.7149,-0.7149,-0.716,-0.716,-0.7153,-0.7172,-0.7163,-0.7164,-0.7172,-0.7175,-0.7177,-0.7177,-0.7141,0,0,0,0,0,-0.7148,-0.7154,-0.7152,-0.7164,-0.7165,-0.7161,-0.7164,-0.7161,-0.7162,-0.7163,-0.7162,-0.7163,-0.7168,-0.7172,-0.7176,-0.719,-0.7189,-0.7196,-0.7198,-0.72,-0.7202,-0.7209,-0.7212,-0.718,-0.718,-0.718,0,0,-0.7158,-0.7158,-0.7162,-0.7167,-0.7168,-0.7174,-0.7162,-0.7169,-0.7174,-0.7164,-0.7173,-0.7172,-0.7174,-0.7185,-0.7191,-0.7186,-0.721,-0.7202,-0.7204,-0.7204,-0.721,-0.7213,-0.7216,-0.7181,-0.7181,-0.7181,0,0,-0.718,-0.718,-0.719,-0.719,-0.7191,-0.7189,-0.7191,-0.7191,-0.719,-0.7199,-0.7191,-0.7196,-0.7205,-0.7206,-0.7207,-0.7228,-0.7222,-0.7229,-0.7242,-0.7248,-0.7251,-0.7253,-0.726,-0.7263,-0.7231,-0.7231,-0.7231,0,-0.7192,-0.7201,-0.7195,-0.7203,-0.7205,-0.7196,-0.7205,-0.7206,-0.7209,-0.721,-0.7204,-0.7214,-0.7215,-0.7226,-0.7231,-0.7233,-0.7235,-0.723,-0.7251,-0.7253,-0.7255,-0.7262,-0.7264,-0.7232,-0.7232,-0.7232,-0.7231,0,-0.7216,-0.7222,-0.723,-0.7232,-0.7235,-0.7244,-0.7239,-0.7242,-0.7238,-0.7236,-0.7245,-0.7245,-0.7248,-0.7251,-0.7247,-0.7262,-0.7258,-0.7252,-0.7242,-0.7259,-0.7265,-0.7268,-0.7233,-0.7233,-0.7232,-0.7232,0,0,-0.7248,-0.7246,-0.7249,-0.725,-0.7249,-0.7254,-0.7262,-0.7265,-0.7268,-0.727,-0.7276,-0.7283,-0.7277,-0.7278,-0.7274,-0.728,-0.7296,-0.7273,-0.7272,-0.7277,-0.7312,-0.7317,-0.732,-0.7291,-0.7292,-0.7292,-0.7312,0,-0.7269,-0.7282,-0.7277,-0.729,-0.7296,-0.7286,-0.7293,-0.7293,-0.7291,-0.7295,-0.7293,-0.7298,-0.7289,-0.729,-0.7295,-0.7293,-0.7303,-0.7291,-0.7297,-0.7297,-0.7298,-0.7323,-0.7329,-0.7347,-0.7314,-0.7314,-0.7315,0,-0.7296,-0.7298,-0.7312,-0.731,-0.7312,-0.7318,-0.732,-0.7324,-0.7324,-0.7322,-0.7324,-0.7318,-0.7325,-0.7315,-0.7324,-0.7316,-0.7318,-0.7317,-0.7318,-0.7319,-0.7307,-0.7325,-0.7353,-0.7356,-0.7318,-0.7318,-0.7318,0,-0.7317,-0.7324,-0.7333,-0.7334,-0.7332,-0.7336,-0.7335,-0.7335,-0.7337,-0.7339,-0.734,-0.7343,-0.7344,-0.7346,-0.7341,-0.7334,-0.7351,-0.7341,-0.735,-0.735,-0.7354,-0.7354,-0.7383,-0.7355,-0.7355,-0.7355,-0.7355,0,-0.7342,-0.7351,-0.7343,-0.7348,-0.7358,-0.7351,-0.7361,-0.7359,-0.7358,-0.7363,-0.7355,-0.736,-0.7352,-0.7356,-0.7352,-0.736,-0.7361,-0.7359,-0.7358,-0.736,-0.7361,-0.7362,-0.7361,-0.7356,-0.7355,-0.7355,-0.7355,0,-0.7368,-0.7363,-0.7372,-0.7369,-0.7369,-0.7376,-0.7373,-0.7378,-0.7375,-0.7381,-0.7382,-0.7377,-0.7381,-0.7376,-0.738,-0.7377,-0.7388,-0.7385,-0.7388,-0.7387,-0.7397,-0.7396,-0.7428,-0.7432,-0.7401,-0.7401,-0.7401,0,-0.7384,-0.7391,-0.7388,-0.7391,-0.739,-0.7395,-0.7397,-0.739,-0.7392,-0.7392,-0.7397,-0.74,-0.7402,-0.7409,-0.7406,-0.7408,-0.7405,-0.7416,-0.7406,-0.7407,-0.7405,-0.7405,-0.7406,-0.7419,-0.7419,-0.7419,-0.742,0,-0.7413,-0.741,-0.7413,-0.7415,-0.7418,-0.7419,-0.742,-0.7422,-0.7415,-0.7418,-0.7421,-0.7423,-0.7426,-0.743,-0.7431,-0.743,-0.7424,-0.7423,-0.7425,-0.7427,-0.7429,-0.7428,-0.7394,-0.7422,-0.7422,-0.7422,-0.7422,-0.7421,-0.7435,-0.744,-0.7439,-0.7442,-0.7442,-0.7442,-0.7447,-0.7444,-0.7447,-0.7449,-0.7444,-0.7449,-0.7448,-0.7449,-0.7449,-0.7452,-0.7447,-0.7451,-0.7452,-0.7453,-0.7454,-0.7428,-0.7452,-0.7452,-0.7452,-0.7452,-0.7452,0,-0.7464,-0.7462,-0.7465,-0.7466,-0.7469,-0.7461,-0.7462,-0.7464,-0.7469,-0.7468,-0.747,-0.7474,-0.7477,-0.7473,-0.7475,-0.7479,-0.7476,-0.748,-0.748,-0.7479,-0.7458,-0.7456,-0.7482,-0.7482,-0.7482,-0.7482,-0.7482,-0.7482,-0.7479,-0.7487,-0.7484,-0.7491,-0.749,-0.7494,-0.7495,-0.7495,-0.7494,-0.7499,-0.7501,-0.7499,-0.7497,-0.7498,-0.75,-0.7499,-0.75,-0.7505,-0.7503,-0.7484,-0.7481,-0.7478,-0.7476,-0.7506,-0.7506,-0.7524,-0.7524,-0.7524]},{"header":{"parameterUnit":"m.s-1","parameterCategory":1,"la1":30.2991,"la2":30.254,"lo1":-89.0895,"lo2":-89.0444,"dy":0.0017,"dx":0.0017,"nx":28,"ny":28,"refTime":"2024-04-21T21:00:00:Z","depth":0,"parameterNumber":3,"parameterNumberName":"V-component_of_WINDS"},"data":[0,0,0,0,0,0,0,0,0,0,0,0,0,0,0,0,0,0,0,0,0,0,0,0,0,0,0,0,0,0,0,0,0,0,0,0,0,0,0,0,0,0,0,0,0,0,0,0,0,0,0,0,0,0,0,0,0,0,-7.2287,-7.2287,0,-7.2292,-7.2292,-7.2292,-7.22,-7.2197,-7.2195,-7.2192,-7.2196,-7.2198,-7.2201,0,0,0,0,0,0,0,0,0,0,0,0,0,-7.2196,-7.2198,-7.2287,-7.2287,-7.2287,-7.2292,-7.2292,-7.2292,-7.22,-7.2197,-7.2194,-7.2191,-7.2195,-7.2198,-7.2201,0,0,0,0,0,0,0,0,0,0,0,0,0,-7.2222,-7.2199,-7.2287,-7.2242,-7.2238,-7.2292,-7.2292,-7.2292,-7.2201,-7.2197,-7.2193,-7.219,-7.2194,-7.2198,-7.2202,-7.2299,0,0,-7.2213,-7.2214,0,0,0,0,0,0,0,0,-7.2221,-7.2225,-7.2248,-7.2245,-7.224,-7.2242,-7.2262,-7.2295,-7.2202,-7.2215,-7.2192,-7.2188,-7.2214,-7.2216,-7.2225,-7.2299,-7.2299,-7.2213,-7.2215,-7.2217,-7.2218,0,0,0,0,0,0,0,-7.2219,-7.2225,-7.2289,-7.2249,-7.2244,-7.2221,-7.222,-7.2267,-7.2235,-7.2213,-7.2207,-7.2209,-7.2211,-7.2222,-7.2225,-7.2299,-7.2213,-7.2216,-7.2218,-7.222,-7.2457,-7.2461,0,0,0,0,0,0,-7.2223,-7.2224,-7.2289,-7.2289,-7.2221,-7.2226,-7.2225,-7.2245,-7.2235,-7.2229,-7.2212,-7.2204,-7.2217,-7.222,-7.2224,-7.234,-7.2217,-7.222,-7.2222,-7.2453,-7.2458,-7.2463,0,0,0,0,0,0,-7.2222,-7.223,-7.2288,-7.2255,-7.226,-7.2231,-7.2254,-7.2247,-7.2257,-7.2233,-7.2227,-7.2229,-7.2215,-7.2219,-7.2282,-7.2339,-7.2222,-7.2225,-7.2448,-7.2455,-7.2461,-7.2572,0,0,0,0,0,0,-7.222,-7.223,-7.2267,-7.2256,-7.2262,-7.2347,-7.2258,-7.225,-7.2264,-7.2254,-7.2248,-7.2243,-7.2212,-7.2277,-7.2286,-7.2342,-7.2228,-7.2443,-7.2451,-7.2459,-7.2563,-7.2581,-7.2597,0,0,0,0,0,-7.2217,-7.2297,-7.2269,-7.2277,-7.2308,-7.235,-7.2353,-7.2317,-7.2269,-7.2306,-7.2291,-7.2243,-7.2331,-7.2284,-7.2293,-7.2352,-7.2439,-7.2449,-7.2458,-7.2556,-7.2578,-7.2597,0,0,0,0,0,0,-7.2313,-7.2294,-7.2263,-7.2342,-7.2349,-7.2334,-7.2379,-7.2341,-7.236,-7.235,-7.2303,-7.2303,-7.2374,-7.2368,-7.2317,-7.2447,-7.2377,-7.2389,-7.2448,-7.2469,-7.2486,-7.2486,-7.2231,0,0,0,0,0,-7.2343,-7.238,-7.2361,-7.2433,-7.2438,-7.2409,-7.2425,-7.2397,-7.2401,-7.2403,-7.2392,-7.2398,-7.2428,-7.2448,-7.2473,-7.2562,-7.256,-7.2606,-7.2623,-7.2637,-7.2648,-7.2698,-7.2719,-7.2493,-7.2493,-7.2493,0,0,-7.2406,-7.2401,-7.2426,-7.2452,-7.2453,-7.2493,-7.2411,-7.2455,-7.2484,-7.2409,-7.2469,-7.2462,-7.2465,-7.2543,-7.2576,-7.2541,-7.271,-7.2649,-7.266,-7.2664,-7.271,-7.2731,-7.275,-7.25,-7.2498,-7.2497,0,0,-7.2542,-7.2541,-7.2602,-7.2606,-7.261,-7.2591,-7.2606,-7.2598,-7.2591,-7.265,-7.2596,-7.263,-7.268,-7.2686,-7.2695,-7.2837,-7.2795,-7.2846,-7.2935,-7.2984,-7.3002,-7.3017,-7.307,-7.309,-7.2857,-7.2857,-7.2858,0,-7.262,-7.2677,-7.2638,-7.2687,-7.2701,-7.2637,-7.2699,-7.2704,-7.2717,-7.2728,-7.2688,-7.2752,-7.275,-7.2829,-7.2864,-7.2873,-7.289,-7.2847,-7.3002,-7.3018,-7.3032,-7.3082,-7.3102,-7.2864,-7.2863,-7.2862,-7.2862,0,-7.2774,-7.2815,-7.2864,-7.288,-7.2898,-7.2954,-7.2923,-7.2947,-7.2918,-7.2903,-7.2966,-7.2961,-7.2986,-7.3002,-7.2973,-7.3079,-7.3057,-7.3011,-7.2939,-7.306,-7.3107,-7.3126,-7.2873,-7.2871,-7.2869,-7.2867,0,0,-7.2969,-7.2965,-7.2984,-7.2992,-7.2993,-7.3024,-7.3077,-7.3103,-7.3126,-7.3136,-7.3181,-7.3227,-7.3185,-7.3196,-7.3167,-7.321,-7.3326,-7.3158,-7.3157,-7.3192,-7.3445,-7.3482,-7.3505,-7.3297,-7.3301,-7.3303,-7.3446,0,-7.3103,-7.3195,-7.3163,-7.3257,-7.3295,-7.3237,-7.3283,-7.329,-7.3278,-7.3309,-7.3295,-7.333,-7.327,-7.3277,-7.3316,-7.3304,-7.3377,-7.3292,-7.334,-7.3342,-7.3343,-7.3529,-7.3567,-7.3701,-7.3464,-7.3466,-7.3469,0,-7.3271,-7.3292,-7.3391,-7.3389,-7.3404,-7.3447,-7.347,-7.35,-7.3506,-7.3495,-7.3509,-7.3472,-7.3525,-7.3453,-7.3526,-7.347,-7.3487,-7.3484,-7.3489,-7.3493,-7.3414,-7.354,-7.3743,-7.3764,-7.3496,-7.3494,-7.3492,0,-7.3408,-7.346,-7.3527,-7.3535,-7.3533,-7.3565,-7.3566,-7.3569,-7.3588,-7.3607,-7.3619,-7.3644,-7.3658,-7.3679,-7.365,-7.36,-7.3729,-7.3654,-7.3722,-7.3723,-7.3752,-7.3751,-7.3963,-7.376,-7.376,-7.376,-7.3759,0,-7.3562,-7.3625,-7.3588,-7.363,-7.3699,-7.3662,-7.3732,-7.3726,-7.373,-7.3769,-7.3719,-7.3757,-7.3715,-7.375,-7.3727,-7.3793,-7.3799,-7.3792,-7.3785,-7.3798,-7.3799,-7.381,-7.38,-7.3765,-7.3764,-7.3763,-7.3762,0,-7.3726,-7.3704,-7.3773,-7.3767,-7.3767,-7.382,-7.3814,-7.3853,-7.3838,-7.3889,-7.3899,-7.3876,-7.3914,-7.3887,-7.3924,-7.3909,-7.3997,-7.3976,-7.3995,-7.399,-7.4061,-7.4056,-7.4289,-7.4319,-7.4095,-7.4097,-7.4099,0,-7.3827,-7.3875,-7.3876,-7.39,-7.3904,-7.3942,-7.3962,-7.3927,-7.395,-7.3963,-7.4001,-7.4035,-7.4061,-7.4125,-7.4111,-7.414,-7.4121,-7.4201,-7.4125,-7.4137,-7.4126,-7.4124,-7.413,-7.4217,-7.4219,-7.4222,-7.4223,0,-7.401,-7.3997,-7.4028,-7.4057,-7.4083,-7.4103,-7.4118,-7.4141,-7.4106,-7.4134,-7.4174,-7.4194,-7.4234,-7.4269,-7.4294,-7.4294,-7.4254,-7.4247,-7.4265,-7.4279,-7.429,-7.4288,-7.404,-7.4242,-7.424,-7.4239,-7.4238,-7.4237,-7.4147,-7.4188,-7.4197,-7.4234,-7.4243,-7.426,-7.4297,-7.4288,-7.4321,-7.4352,-7.4329,-7.4377,-7.4384,-7.4413,-7.4419,-7.4457,-7.4424,-7.4449,-7.4456,-7.4463,-7.4474,-7.4282,-7.446,-7.446,-7.4459,-7.4459,-7.4458,0,-7.4329,-7.4333,-7.4367,-7.4393,-7.4423,-7.4384,-7.44,-7.4428,-7.4471,-7.4482,-7.4509,-7.4557,-7.4591,-7.4582,-7.4613,-7.4645,-7.4628,-7.4655,-7.4653,-7.4655,-7.45,-7.4483,-7.4669,-7.4669,-7.4669,-7.4668,-7.4668,-7.4668,-7.4428,-7.4497,-7.4486,-7.456,-7.4562,-7.461,-7.4623,-7.4639,-7.4648,-7.4704,-7.4733,-7.4727,-7.4731,-7.4762,-7.4793,-7.4789,-7.4804,-7.4839,-7.4829,-7.4685,-7.4665,-7.4645,-7.4629,-7.4842,-7.4842,-7.498,-7.4982,-7.4983]}]]